User: anonymous   Login
Location: Boston
(42.3580°N, 71.0600°W)
Time: 23:29:39
(UTC-05:00)
Language:

Envisat - Orbit

View from above orbital plane
View from above orbital plane
View from above satellite
View from above satellite

Ground track
Ground track

The orbit data is extracted from the following two-line orbital elements,

1 27386U 02009A   17347.77933077 -.00000021  00000-0  68342-5 0  9994
2 27386  98.2095  25.3446 0001517  83.3372 276.7981 14.37910618826887
Epoch (UTC): 13 December 2017 18:42:14
Eccentricity: 0.0001517
inclination: 98.2095°
perigee height: 764 km
apogee height: 766 km
right ascension of ascending node: 25.3446°
argument of perigee: 83.3372°
revolutions per day: 14.37910618
mean anomaly at epoch: 276.7981°
orbit number at epoch: 82688

The dashed part of the orbit path shows where the satellite is in the earth's shadow,  

DLR